Location: Chakepay
(13.3931°S, 72.1925°W)
Time: 00:21:56
(UTC+00:00)

Cosmos 2297 Rocket - Pass Details

Date: 15 November 2019
Orbit: 839 x 843 km, 71.0° (Epoch: 14 December)

Event Time Altitude Azimuth Distance (km) Brightness Sun altitude
Rises 00:14:36 0° 346° (NNW) 3,380 5.2 -18.8°
Reaches altitude 10° 00:17:01 10° 347° (NNW) 2,451 4.5 -19.3°
Maximum altitude 00:22:39 84° 74° (ENE) 853 2.1 -20.6°
Drops below altitude 10° 00:28:21 10° 162° (SSE) 2,471 4.7 -21.8°
Sets 00:30:48 0° 162° (SSE) 3,411 5.5 -22.3°
